RUSSARO Weather Reports


Display with metric or nautical units.
time (UTC)temp
F
wind
direction
speed
MPH
gust
MPH
rain 1hr
in
rain 24hr
in
rain mn
in
humidity
%
barometer
mb
20260504040714 43 1 3.0 4.0 0.00 0.00 0.00 70 1006.2
20260504034714 42 349 3.0 5.0 0.00 0.00 0.00 81 1006.3
20260504032714 41 345 6.0 6.0 0.00 0.00 0.00 83 1006.4
20260504030714 40 337 5.0 6.0 0.00 0.00 0.00 85 1006.5
20260504024713 39 320 4.0 6.0 0.00 0.00 0.00 84 1006.7
20260504022713 40 8 6.0 9.0 0.00 0.00 0.00 82 1006.9
20260504020713 40 8 11.0 12.0 0.00 0.00 0.00 83 1007.0
20260504014714 40 334 10.0 11.0 0.00 0.00 0.00 82 1007.2
20260504012713 41 335 11.0 12.0 0.00 0.00 0.00 82 1007.4
20260504010714 41 331 11.0 12.0 0.00 0.00 0.00 82 1007.4
20260504004713 41 332 11.0 12.0 0.00 0.00 0.00 83 1007.5
20260504002714 41 317 10.0 11.0 0.00 0.00 0.00 83 1007.7
20260504000714 42 315 10.0 11.0 0.00 0.00 0.00 82 1007.8
20260503234713 42 316 11.0 13.0 0.00 0.00 0.00 81 1007.9
20260503232713 43 308 12.0 13.0 0.00 0.00 0.00 81 1007.9
20260503230713 43 311 11.0 12.0 0.00 0.00 0.00 81 1008.0
20260503224713 43 316 12.0 13.0 0.00 0.00 0.00 79 1008.0
20260503222713 43 310 13.0 15.0 0.00 0.00 0.00 80 1008.3
20260503220713 43 311 13.0 15.0 0.00 0.00 0.00 80 1008.2
20260503214712 43 308 13.0 15.0 0.00 0.00 0.00 80 1008.4
20260503212712 42 298 13.0 15.0 0.00 0.00 0.00 84 1008.5
20260503210713 42 297 15.0 16.0 0.00 0.00 0.00 86 1008.5
20260503204712 42 290 15.0 16.0 0.00 0.00 0.00 86 1008.5
20260503202712 43 293 12.0 13.0 0.00 0.00 0.00 84 1008.5
20260503200712 43 296 11.0 13.0 0.00 0.00 0.00 82 1008.5
20260503194712 43 295 13.0 13.0 0.00 0.00 0.00 84 1008.6
20260503192711 43 292 13.0 14.0 0.00 0.00 0.00 82 1008.6
20260503190712 44 303 15.0 16.0 0.00 0.00 0.00 81 1008.6
20260503184712 44 292 16.0 18.0 0.00 0.00 0.00 83 1008.7
20260503182711 44 287 15.0 17.0 0.00 0.00 0.00 83 1008.7
20260503180712 45 299 14.0 15.0 0.00 0.00 0.00 80 1008.4
20260503174712 45 298 14.0 16.0 0.00 0.00 0.00 79 1008.4
20260503172718 46 288 15.0 16.0 0.00 0.00 0.00 78 1008.4
20260503170711 46 295 15.0 16.0 0.00 0.00 0.00 79 1008.5
20260503150711 47 273 19.0 22.0 0.00 0.00 0.00 81 1009.0
20260503130710 51 254 18.0 19.0 0.00 0.00 0.00 75 1009.2
20260503110710 51 304 15.0 17.0 0.00 0.00 0.00 71 1009.0
20260503080710 50 276 11.0 13.0 0.00 0.00 0.00 77 1008.8
20260503072710 46 285 9.0 14.0 0.00 0.00 0.00 85 1008.5
20260503070709 49 302 6.0 7.0 0.00 0.00 0.00 80 1008.1
20260503054709 44 285 14.0 15.0 0.00 0.00 0.00 87 1007.7
20260503052709 44 277 14.0 15.0 0.00 0.00 0.00 88 1007.3
20260503050709 43 275 18.0 19.0 0.00 0.00 0.00 89 1007.2
20260503044709 43 277 18.0 19.0 0.00 0.00 0.00 89 1007.2
20260503042709 43 272 16.0 18.0 0.00 0.00 0.00 89 1006.8